Overview Statistics Trail Chart Weather Telemetry Raw packets
 

This is the latest recevied weather packets stored in our database for station/object N7IGG. If no packets are shown the sender has not sent any weather packets the latest 10 day(s).

<< 83 84 85 86 87 88 89 >>
Time Temp. Humidity Pressure Rain* Wind** Luminosity Snow
1777573273 15.56° C 77% 1020.2 hPa 0 mm - 213 W/m² -
1777572969 15.56° C 78% 1020.6 hPa 0 mm - 268 W/m² -
1777572665 15.56° C 77% 1020.5 hPa 0 mm - 165 W/m² -
1777572365 15.56° C 77% 1020.5 hPa 0 mm - 384 W/m² -
1777572062 15.56° C 77% 1020.6 hPa 0 mm - 223 W/m² -
1777571762 15.56° C 78% 1020.6 hPa 0 mm - 143 W/m² -
1777571459 15° C 79% 1020.7 hPa 0 mm - 335 W/m² -
1777571155 15° C 80% 1020.8 hPa 0 mm - 126 W/m² -
1777570851 15° C 81% 1020.7 hPa 0 mm - 117 W/m² -
1777570547 13.89° C 82% 1021 hPa 0 mm - 122 W/m² -
1777570245 13.89° C 84% 1020.8 hPa 0 mm - 99 W/m² -
1777569945 13.33° C 85% 1021 hPa 0 mm - 93 W/m² -
1777569641 13.33° C 86% 1021 hPa 0 mm - 89 W/m² -
1777569337 13.33° C 87% 1021 hPa 0 mm - 98 W/m² -
1777569033 13.33° C 88% 1021.2 hPa 0 mm - 91 W/m² -
1777568730 12.78° C 89% 1021.2 hPa 0 mm - 88 W/m² -
1777568428 12.78° C 90% 1021.3 hPa 0 mm - 87 W/m² -
1777568125 12.22° C 91% 1021.3 hPa 0 mm - 84 W/m² -
1777567821 12.22° C 91% 1021.2 hPa 0 mm - 86 W/m² -
1777567517 12.22° C 92% 1021.3 hPa 0 mm - 83 W/m² -
1777567215 12.22° C 92% 1021.4 hPa 0 mm - 82 W/m² -
1777566914 11.67° C 93% 1021.4 hPa 0 mm - 81 W/m² -
1777566611 11.67° C 93% 1021.4 hPa 0 mm - 201 W/m² -
1777566308 11.67° C 93% 1021.4 hPa 0 mm - 76 W/m² -
1777566006 11.11° C 93% 1021.6 hPa 0 mm - 75 W/m² -

* Rain latest hour (hover to see other rain measurements)
** Current wind speed in m/s (hover to see current wind gust speed)